Regional Weather Roundup
Issued by NWS

Home | Current Version | Previous Version | Graphics & Text | Print | Product List | Glossary On
Versions: 1 2 3 4 5 6 7 8 9 10 11 12 13 14 15 16 17 18 19 20 21 22 23 24 25 26 27 28 29 30 31 32 33 34 35 36 37 38 39 40 41 42 43 44 45 46 47 48 49
000
ASUS45 KBOU 230510
RWRCO

WEATHER ROUNDUP FOR COLORADO
NATIONAL WEATHER SERVICE DENVER/BOULDER CO
1100 PM MDT SUN APR 22 2018

NOTE: "FAIR" INDICATES FEW OR NO CLOUDS BELOW 12000 FEET WITH NO
SIGNIFICANT WEATHER AND/OR OBSTRUCTIONS TO VISIBILITY.

COZ001>005-013-030-031-230600-
...NORTHWEST COLORADO...

CITY           SKY/WX    TMP DP  RH WIND       PRES   REMARKS
CRAIG          FAIR      45  35  68 E3        30.08S
HAYDEN         FAIR      48  30  49 CALM      30.11S
MEEKER         FAIR      48  33  56 NE8       30.10R
RANGELY        FAIR      54  38  56 CALM      30.03S
RABBIT EARS PA FAIR      41  23  48 SW6       30.28S
STEAMBOAT SPGS FAIR      45  30  57 E7        30.12R
WALDEN         FAIR      34  27  75 SE5       30.19S WCI  30
$$

COZ006>008-011-230600-
...WEST CENTRAL VALLEYS...

CITY           SKY/WX    TMP DP  RH WIND       PRES   REMARKS
GRAND JUNCTION FAIR      56  26  31 E6        30.01R
MONTROSE       FAIR      53  34  48 SE9       30.09S
EAGLE          FAIR      45  34  65 CALM      30.15R
RIFLE          FAIR      52  37  56 CALM      30.06R
DELTA          FAIR      57  33  39 NE5       30.06R
NUCLA          FAIR      52  27  37 SE6       30.11S
$$

COZ017>023-064>068-230600-
...SOUTHWEST COLORADO...

CITY           SKY/WX    TMP DP  RH WIND       PRES   REMARKS
DURANGO        FAIR      49  24  37 N5        30.12R
CORTEZ         FAIR      44  21  40 E9        30.09R
PAGOSA SPRINGS FAIR      40  18  41 NE3       30.18R
TELLURIDE      FAIR      43  29  56 SE7       30.26S
WOLF CREEK PAS FAIR      34  12  40 SW9       30.42S WCI  26
$$

COZ009-010-012-014-032>034-037-058>063-230600-
...CENTRAL COLORADO...

CITY           SKY/WX    TMP DP  RH WIND       PRES   REMARKS
ASPEN          FAIR      41  28  60 S7        30.17S
BUENA VISTA    MOCLDY    47  34  61 W6        30.24S
COPPER MTN     NOT AVBL
BERTHOUD PASS  MOCLDY    28  18  64 SW9G16    30.38S WCI  20
COTTONWOOD PAS CLOUDY    43  37  81 W6        30.31S
GUNNISON       CLOUDY    50  33  52 NE5       30.19R
GRANBY         FAIR      36  29  75 NE3       30.20S
KREMMLING      FAIR      45  34  65 CALM      30.17S
LEADVILLE      CLOUDY    34  31  88 S3        30.29R
MONARCH PASS   CLOUDY    32  28  86 NE7       30.48S WCI  26
SALIDA         MOCLDY    49  36  60 E9        30.29S
SUNLIGHT       FAIR      36  23  60 S3        30.34S
WILKERSON PASS MOCLDY    32  28  86 SE3       30.38S
$$

COZ069>075-230600-
...SAN LUIS VALLEY/SANGRE DE CRISTO MOUNTAINS...

CITY           SKY/WX    TMP DP  RH WIND       PRES   REMARKS
ALAMOSA        MOCLDY    50  30  46 E12       30.16R
DEL NORTE      FAIR      45  26  46 W10       30.20S
LA VETA PASS   CLOUDY    37  28  70 NE7       30.42S
SAGUACHE       NOT AVBL
$$

COZ035-036-038>040-230600-
...NORTHERN COLORADO FRONT RANGE...

CITY           SKY/WX    TMP DP  RH WIND       PRES   REMARKS
DENVER INTL AP FAIR      40  34  79 SE8       30.12F
AURORA         NOT AVBL
FRONT RANGE AP CLOUDY    46  39  75 SE9       30.13F
ERIE MUNI ARPT FAIR      49  35  59 CALM      30.18S
BOULDER MUN AP FAIR      50  36  57 CALM      30.12F
CENTENNIAL     FAIR      49  38  65 S14       30.14F
BROOMFIELD     FAIR      52  32  46 CALM      30.14S
FORT COLLINS   FAIR      48  36  63 CALM      30.14R
LONGMONT       FAIR      45  37  73 NW5       30.14F
$$

COZ041-046-047-076>085-087-088-230600-
...PIKES PEAK/PALMER DIVIDE AND SOUTHERN FOOTHILLS...

CITY           SKY/WX    TMP DP  RH WIND       PRES   REMARKS
COLO. SPRINGS  MOCLDY    44  36  73 SE3       30.22R
A. F. ACADEMY  CLOUDY    44  36  74 S8        30.21S
SCHRIEVER AFB  NOT AVBL
CHEYENNE MTN   NOT AVBL
ELLICOTT         N/A    N/A N/A N/A S8        30.20S
FALCON         CLOUDY    39  36  87 S3        30.24R
FORT CARSON    CLOUDY    44  37  76 SE6       30.20R
LIMON          FAIR      38  35  89 S7        30.19S
MONUMENT HILL  FAIR      36  34  93 S8        30.22R
CANON CITY     FAIR      46  39  76 NE3       30.19S
WALSENBURG     NOT AVBL
TRINIDAD       FAIR      45  31  58 NW7       30.17S
$$

COZ042>045-048>051-090-091-230600-
...NORTHEAST COLORADO...

CITY           SKY/WX    TMP DP  RH WIND       PRES   REMARKS
GREELEY ARPT   FAIR      44  38  79 E6        30.13F
AKRON          FAIR      41  36  82 S13       30.16S
BURLINGTON     FAIR      37  33  85 S10       30.19S
WRAY           FAIR      43  34  70 S3        30.18S
YUMA           FAIR      34  32  93 S8        30.17F WCI  27
STERLING       NOT AVBL
HOLYOKE        FAIR      37  34  87 S7        30.18S
FORT MORGAN    FAIR      44  36  75 SE9       30.15F
$$

COZ086-089-092>099-230600-
...SOUTHEAST COLORADO...

CITY           SKY/WX    TMP DP  RH WIND       PRES   REMARKS
PUEBLO         FAIR      46  34  62 NE3       30.18R
LA JUNTA       FAIR      45  36  70 E10       30.17S
LAMAR          FAIR      41  35  79 MISG      30.17S
SPRINGFIELD      N/A     38  34  85 CALM      30.18S
$$




USA.gov is the U.S. government's official web portal to all federal, state and local government web resources and services.